User: anonymous   Login
Location: Holiday Acres Laynes 2 Mobile Home Park
(26.7249°N, 81.8671°W)
Time: 16:33:12
(UTC+00:00)
Language:

Helios 1A Rocket - Orbit

View from above orbital plane
View from above orbital plane
View from above satellite
View from above satellite

Ground track
Ground track

The orbit data is extracted from the following two-line orbital elements,

1 23608U 95033D   21063.46464113  .00000030  00000-0  83260-5 0  9997
2 23608  98.3060  97.4357 0017568 100.3363 259.9839 14.97588223390663
Epoch (UTC): 04 March 2021 11:09:04
Eccentricity: 0.0017568
inclination: 98.3060°
perigee height: 562 km
apogee height: 586 km
right ascension of ascending node: 97.4357°
argument of perigee: 100.3363°
revolutions per day: 14.97588223
mean anomaly at epoch: 259.9839°
orbit number at epoch: 39066

The dashed part of the orbit path shows where the satellite is in the earth's shadow,  

DLR